Regional Weather Roundup
Issued by NWS

Current Version | Previous Version | Text Only | Print | Product List | Glossary On
Versions: 1 2 3 4 5 6 7 8 9 10 11 12 13 14 15 16 17 18 19 20 21 22 23 24 25 26 27 28 29 30 31 32 33 34 35 36 37 38 39 40 41 42 43 44 45 46 47 48 49 50
000
ASUS44 KOUN 250210
RWROK

WEATHER ROUNDUP FOR OKLAHOMA
NATIONAL WEATHER SERVICE NORMAN OK
900 PM CDT FRI MAR 24 2017

NOTE: "FAIR" INDICATES FEW OR NO CLOUDS BELOW 12,000 FEET WITH NO
      SIGNIFICANT WEATHER AND/OR OBSTRUCTIONS TO VISIBILITY.

OKZ001>007-009>012-014-015-017-250300-
NORTHWEST OKLAHOMA AND THE PANHANDLE

CITY           SKY/WX    TMP DP  RH WIND       PRES   REMARKS
GAGE           CLOUDY    48  44  86 N23G31    29.88R
GUYMON         CLOUDY    45  38  76 N26G33    30.00R
ENID/WOODRING  CLOUDY    64  39  39 S6        29.73R
$$

OKZ016-021>023-033>039-044-045-250300-
SOUTHWEST OKLAHOMA

CITY           SKY/WX    TMP DP  RH WIND       PRES   REMARKS
LAWTON/REGL    CLOUDY    62  44  51 W18G37    29.73R
LAWTON/FT SILL CLOUDY    61  46  59 W18G28    29.71R
FREDERICK      MOCLDY    62  44  51 W26G38    29.76R
CLINTON        CLOUDY    53  47  79 NW23G29   29.78R
HOBART         MOCLDY    54  48  80 NW23G29   29.76R
ALTUS AFB      CLOUDY    59  41  51 W25G32    29.80R
$$

OKZ018>020-024>031-250300-
CENTRAL OKLAHOMA

CITY           SKY/WX    TMP DP  RH WIND       PRES   REMARKS
OKLAHOMA CITY  MOCLDY    55  48  77 S5        29.71R
OKC/WILEY POST CLOUDY    59  48  67 SW3       29.71R
OKC/TINKER AFB CLOUDY    58  48  68 S7        29.70S
STILLWATER     CLOUDY    69  31  24 SW5       29.70S
GUTHRIE        CLOUDY    59  50  72 CALM      29.72R
$$

OKZ008-013-054>072-250300-
NORTHEAST OKLAHOMA

CITY           SKY/WX    TMP DP  RH WIND       PRES   REMARKS
TULSA          MOCLDY    64  51  62 NE3       29.73R
TULSA/JONES    CLOUDY    61  46  57 E3        29.73S
PONCA CITY     MOCLDY    68  30  24 S5        29.72S
BARTLESVILLE   CLEAR     59  52  77 CALM      29.76R
MUSKOGEE       PTCLDY    63  59  87 SE10      29.75S
$$

OKZ032-040>043-046>053-073>077-250300-
SOUTH CENTRAL/SOUTHEAST OKLAHOMA

CITY           SKY/WX    TMP DP  RH WIND       PRES   REMARKS
ARDMORE/DWNTWN CLOUDY    68  34  28 NW14G20   29.77R
MCALESTER      PTCLDY    65  58  78 SE7       29.74F
$$




USA.gov is the U.S. government's official web portal to all federal, state and local government web resources and services.